Tracking 19164 objects as of 20-May-2018
HD Live streaming from Space Station
objects crossing your sky now

GORIZONT 22

Track GORIZONT 22 now!
GORIZONT 22 is classified as:


NORAD ID: 20953
Int'l Code: 1990-102A
Perigee: 35,735.2 km
Apogee: 35,795.7 km
Inclination: 15.0 °
Period: 1,434.7 minutes
Semi major axis: 42136 km
RCS: 3.5481 m2 (large)
Launch date: November 23, 1990
Source: Commonwealth of Independent States (former USSR) (CIS)
Launch site: TYURATAM MISSILE AND SPACE COMPLEX (TTMTR)
aabbcc
Your satellite tracking list
Your tracking list is empty




NASA's NSSDC Master Catalog

Two Line Element Set (TLE):
1 20953U 90102A   18140.56855010 -.00000366 +00000-0 +00000-0 0  9991
2 20953 014.9545 002.0055 0007186 295.9969 248.8196 01.00372790100796
Source of the keplerian elements: AFSPC